Weather in Izdeshkovo

Russia / Smolensk Oblast     55°08′36″N   33°37′21″E
temp.,
°C
wind,
m/s
gust,
m/s
humid.,
%
clouds,
%
prec.,
mm/h
press.,
hPa
HPBL,
m
28 july, wed
wed2800:00+17se4890100 0.0 1017160
03:00+17sse248899 0.0 101669
06:00+17s31094100 0.4 1015347
09:00+17se41097100 9.8 1013445
12:00+17se51196100 5.4 1012722
15:00+18se5992100 6.3 1011416
18:00+21sw3690100 2.0 1009646
21:00+17wnw379832 3.2 1009268
29 july, thu
thu2900:00+15wnw249823 0.0 100982
03:00+15w12975 0.0 100913
06:00+16wsw22975 0.0 100960
09:00+21w248177 0.0 1008359
12:00+26w4551100 0.1 10081782
15:00+28w454199 0.1 10072437
18:00+26sw245764 0.0 1006455
21:00+21wnw4971100 0.0 1006270
30 july, fri
fri3000:00+18sw1198100 2.5 100746
03:00+18w239699 2.6 100682
06:00+16w2597100 0.1 1006134
09:00+20wnw368147 0.1 1007417
12:00+25wnw46480 0.0 10061635
15:00+23w4751100 0.0 1007944
18:00+22w2559100 0.0 1007467
21:00+18wsw35765 0.1 100685
31 july, sat
sat3100:00+18sw2676100 0.0 1006147
03:00+17ssw388147 0.1 1006194
06:00+17sw4117810 0.1 1006369
09:00+21wsw595166 0.1 10061155
12:00+24wsw7104094 0.0 10061837
15:00+25wsw693840 0.0 10072005
18:00+24sw57475 0.0 10071375
21:00+18ssw336868 0.0 100735
1 august, sun
sun100:00+18s3467100 0.0 100771
03:00+16s2298100 4.1 100668
06:00+17s2498100 1.4 1005157
09:00+18sw3797100 2.8 1005434
12:00+22w577781 0.7 10061062
15:00+25w57455 1.0 10062049
18:00+24wsw5749100 0.0 10071533
21:00+17sw377632 0.0 1008103